Hourly Data Report for September 14, 2010

IQALUIT CLIMATE
NUNAVUT

63°44'50.000" N
68°32'40.000" W
33.50 m
2402592
71321
XFB

Download Data

Hourly Data (September 2010)
Hourly Data Report for September 14, 2010
TIME
LST
Temp Definition
°C
Dew Point Definition
°C
Rel Hum Definition
%
Precip. Amount Definition
mm

Wind Dir Definition
10's deg

Wind Spd Definition
km/h
Visibility Definition
km
Stn Press Definition
kPa
Hmdx Definition


Wind Chill Definition


Weather Definition


00:00 4.8 4.1 95   13 11   100.49     LegendNANA
01:00 4.7 4.4 98   13 11   100.52     LegendNANA
02:00 4.8 4.6 99   15 6   100.52     LegendNANA
03:00 4.9 4.7 99   10 4   100.53     LegendNANA
04:00 4.6 4.0 96   16 7   100.55     LegendNANA
05:00 4.4 4.1 98   13 4   100.56     LegendNANA
06:00 4.7 4.4 98   8 2   100.59     LegendNANA
07:00 5.0 4.6 97   14 6   100.60     LegendNANA
08:00 5.6 5.0 96   13 9   100.62     LegendNANA
09:00 5.9 5.3 96   14 13   100.63     LegendNANA
10:00 5.0 4.3 95   15 13   100.63     LegendNANA
11:00 6.6 5.6 93   17 11   100.64     LegendNANA
12:00 5.0 4.4 96   14 13   100.64     LegendNANA
13:00 5.1 4.6 97   15 9   100.66     LegendNANA
14:00 5.0 4.8 99   15 6   100.67     LegendNANA
15:00 4.8 4.8 100   15 15   100.67     LegendNANA
16:00 4.6 4.6 100   16 9   100.69     LegendNANA
17:00 4.7 4.7 100   13 11   100.71     LegendNANA
18:00 4.7 4.7 100   15 7   100.74     LegendNANA
19:00 5.0 4.9 99   14 9   100.75     LegendNANA
20:00 4.9 4.9 100   17 6   100.76     LegendNANA
21:00 5.4 5.4 100   28 4   100.77     LegendNANA
22:00 5.8 5.8 100   3 4   100.77     LegendNANA
23:00 5.6 5.4 99   16 7   100.77     LegendNANA

Notes on Data Quality.

Legend

  • E = Estimated
  • M = Missing
  • NA = Not Available*
  • [empty] = Indicates an unobserved value
Date modified: